Regional Weather Roundup
Issued by NWS

Home | Current Version | Previous Version | Text Only | Print | Product List | Glossary Off
Versions: 1 2 3 4 5 6 7 8 9 10 11 12 13 14 15 16 17 18 19 20 21 22 23 24 25 26 27 28 29 30 31 32 33 34 35 36 37 38 39 40 41 42 43 44 45 46 47 48 49 50

000
ASUS45 KTFX 300110
RWRMT
MONTANA REGIONAL WEATHER ROUNDUP
NATIONAL WEATHER SERVICE GREAT FALLS MT
700 PM MDT SAT AUG 29 2015

NOTE: "FAIR" INDICATES FEW OR NO CLOUDS BELOW 12000 FEET WITH NO
SIGNIFICANT WEATHER AND/OR OBSTRUCTIONS TO VISIBILITY.

MTZ001>007-043-300200-
WEST OF THE DIVIDE

CITY           SKY/WX    TMP DP  RH WIND       PRES   REMARKS
KALISPELL      CLOUDY    80  44  27 W10       29.78R SMOKE
MISSOULA       CLOUDY    76  43  30 N12       29.81R HAZE
BUTTE          CLOUDY    76  46  34 S6        29.89F
MULLAN PASS    LGT RAIN  51  44  77 W8        30.01R
DEER LODGE       N/A     79  52  38 NE6       29.85F
EUREKA           N/A     72  39  30 S14G20    29.85R
HAMILTON         N/A     79  43  27 SE12      29.78R
LIBBY            N/A     64  46  52 W5        29.87R
PLAINS           N/A     75  45  34 W20       29.83R
$$

MTZ008-052>055-300200-
SOUTHWEST MONTANA

CITY           SKY/WX    TMP DP  RH WIND       PRES   REMARKS
BOZEMAN        CLOUDY    85  40  20 S21G29    29.82S
DILLON         CLOUDY    82  40  22 SW13G22   29.85R
W YELLOWSTONE  CLOUDY    68  41  37 W5        30.10F
$$

MTZ009-010-012-014-046-048-049-054-300200-
EAST SLOPES AND CENTRAL MONTANA

CITY           SKY/WX    TMP DP  RH WIND       PRES   REMARKS
CUT BANK       CLOUDY    81  40  23 W14       29.73R HAZE
GREAT FALLS    CLOUDY    73  57  57 S10       29.74S
MALMSTROM AFB  LGT RAIN  73  54  50 S12       29.74F
HELENA         CLOUDY    73  60  63 CALM      29.76F
CONRAD           N/A     83  48  29 SE16      29.77S
$$

MTZ011-013-016-021-045-047-050-051-300200-
NORTH CENTRAL MONTANA

CITY           SKY/WX    TMP DP  RH WIND       PRES   REMARKS
HAVRE          CLOUDY    84  51  31 SE8       29.65F
LEWISTOWN      CLOUDY    87  42  20 S15       29.79S
N BAR RANCH      N/A     84  41  21 S16G26    29.86F
CHINOOK          N/A     84  52  32 E6        29.65F
FORT BENTON      N/A     75  55  50 W7        29.73R
$$

MTZ017>020-022>027-061-062-300200-
NORTHEAST MONTANA

CITY           SKY/WX    TMP DP  RH WIND       PRES   REMARKS
GLASGOW        HAZE      85  43  22 E10       29.71F VSB 3/4
JORDAN           N/A     89  42  19 S5        29.74F
SIDNEY         CLOUDY    84  61  45 CALM      29.75F
WOLF POINT     HAZE      86  50  28 E7        29.73F VSB 1
MALTA            N/A     87  49  26 CALM      29.68F
PLENTYWOOD       N/A     84  46  26 SE5       29.79S VSB 1
POPLAR           N/A     84  48  28 NE5       29.75F
$$

MTZ028>42-056>058-300200-
SOUTHCENTRAL AND SOUTHEAST MONTANA

CITY           SKY/WX    TMP DP  RH WIND       PRES   REMARKS
BAKER          CLOUDY    90  48  23 S10       29.84F
BILLINGS       CLOUDY    87  42  20 S5        29.83F
LIVINGSTON     PTSUNNY   86  39  19 SW33G41   29.84F
MILES CITY     PTCLDY    94  44  17 SE8       29.76F HX  90
EKALAKA          N/A     85  47  26 SE6       29.88F
FORSYTH          N/A     99  39  12 SE5       29.76F HX  94
LAUREL           N/A     88  46  23 CALM      29.84F
$$

REGIONAL REPORTS...DAKOTAS

CITY           SKY/WX    TMP DP  RH WIND       PRES   REMARKS
WILLISTON      MOCLDY    81  59  47 N5        29.77F HAZE
MINOT          PTCLDY    82  56  40 SE7       29.77F HAZE
DICKINSON      PTCLDY    83  47  28 S7        29.82S
CROSBY           N/A     77  57  50 E7        29.79S HAZE
BISMARCK       PTCLDY    80  62  54 S9        29.82F HAZE
GRAND FORKS    MOCLDY    73  68  84 S6        29.82S
FARGO          PTCLDY    78  68  71 S15       29.86S
BUFFALO SD       N/A     83  54  36 SE13      29.82F
RAPID CITY     PTCLDY    81  57  43 SE7       29.92F
$$

REGIONAL REPORTS...WYOMING/IDAHO/WASHINGTON

CITY           SKY/WX    TMP DP  RH WIND       PRES   REMARKS
GILLETTE       PTCLDY    83  45  26 S9        29.92F
SHERIDAN       MOCLDY    91  40  16 CALM      29.86F
BUFFALO WY     MOCLDY    85  37  18 SW7       29.97S
CODY           CLOUDY    81  45  28 NE8       29.96F
YELLOWSTONE LA   N/A     71  42  35 VRB6      30.20F
IDAHO FALLS    CLOUDY    80  45  28 W14       29.94R
SALMON         PTSUNNY   82  39  21 SW22      29.77S
BOISE          CLOUDY    86  42  21 CALM      29.80S
SPOKANE        PTSUNNY   72  41  32 SW20      29.82S BLWGDUST
$$

REGIONAL REPORTS...ALBERTA

CITY           SKY/WX    TMP DP  RH WIND       PRES   REMARKS
EDMONTON       SUNNY     75  50  41 SE20G28   29.46F
CALGARY        PTSUNNY   77  43  29 SW21G35   29.58R SMOKE
LETHBRIDGE     CLOUDY    81  43  26 SW13G22   29.66R SMOKE
MEDICINE HAT   CLOUDY    88  45  22 S12       29.60S
WATERTON GATE    N/A     72  41  33 SW22G41     N/A
CARDSTON         N/A     75  41  29 SW9G20      N/A
MILK RIVER       N/A     82  43  24 SW7         N/A
ONEFOUR          N/A     82  41  23 S6          N/A
$$

REGIONAL REPORTS...SASKATCHEWAN

CITY           SKY/WX    TMP DP  RH WIND       PRES   REMARKS
SWIFT CURRENT  PTCLDY    77  54  44 SE12G17   29.70F HAZE
REGINA         CLOUDY    79  54  41 E5        29.75F SMOKE
SASKATOON      CLOUDY    75  55  50 S7        29.70F
CYPRESS HILLS    N/A     77  41  27 S6          N/A
VAL MARIE        N/A     82  45  26 SE9         N/A
ROCKGLEN         N/A     77  50  38 E10         N/A
$$


USA.gov is the U.S. government's official web portal to all federal, state and local government web resources and services.